• Join FlightAware (Why Join?)
  • Login
  • US Flag GB Flag 
05:26 EST


 

Airport Tracker/Info


-or-


 

Live Flight TrackerFlight Track Log ✈ ASQ6151 ✈ 30-Apr-2013 ✈ KRAP - KORD

Flight Track Log - Related Links

Times and Time Zones

All times are in EDT time to prevent confusion due to time zone crossing. See the ASQ6151 flight status page for this flight to view local times or setup timezone preferences in your user account.

Time Position Orientation Groundspeed Altitude Reporting Facility
EDT Latitude Longitude Course Direction KTS MPH feet Rate Location/Type
16:19 44.0986 -103.0267 35° Northeast 213 245 6,200  Level Denver Center
16:20 44.0989 -102.9292 90° East 262 302 8,100 1,786 Climbing Denver Center
16:21 44.0975 -102.8944 93° East 326 375 8,700 2,066 Climbing Denver Center
16:21 44.1014 -102.8161 86° East 281 323 10,200 1,935 Climbing Denver Center
16:22 44.1006 -102.7697 91° East 290 334 10,700 918 Climbing Denver Center
16:23 44.1086 -102.6592 84° East 313 360 11,700 1,015 Climbing Denver Center
16:24 44.0961 -102.4892 96° East 355 409 13,000 1,268 Climbing Denver Center
16:25 44.0797 -102.3061 97° East 386 444 14,300 1,317 Climbing Denver Center
16:26 44.0644 -102.1464 98° East 407 468 15,700 1,306 Climbing Denver Center
16:27 44.0519 -101.9883 96° East 412 474 17,000 1,220 Climbing Denver Center
16:28 44.0478 -101.8244 92° East 422 486 18,200 1,122 Climbing Denver Center
16:29 44.0428 -101.6553 92° East 433 498 19,300 927 Climbing Denver Center
16:30 44.0317 -101.5219 97° East 434 499 20,100 1,122 Climbing Denver Center
16:31 44.0181 -101.3183 95° East 440 506 21,600 1,200 Climbing Denver Center
16:32 44.0136 -101.2192 94° East 439 505 22,300 1,351 Climbing Minneapolis Center
16:33 43.9961 -100.9806 96° East 444 511 24,100 1,440 Climbing Minneapolis Center
16:34 43.9847 -100.8106 95° East 444 511 25,300 1,113 Climbing Minneapolis Center
16:35 43.9725 -100.6417 96° East 445 512 26,400 1,065 Climbing Minneapolis Center
16:36 43.9583 -100.4667 96° East 448 516 27,500 1,016 Climbing Minneapolis Center
16:37 43.9464 -100.2931 95° East 452 520 28,500 1,016 Climbing Minneapolis Center
16:38 43.9350 -100.1178 95° East 456 525 29,600 1,113 Climbing Minneapolis Center
16:39 43.9236 -99.9067 94° East 459 528 30,800 1,113 Climbing Minneapolis Center
16:40 43.9119 -99.7300 95° East 461 531 31,900 1,065 Climbing Minneapolis Center
16:41 43.9008 -99.5511 95° East 466 536 33,000 1,016 Climbing Minneapolis Center
16:42 43.8869 -99.3697 96° East 472 543 34,000 968 Climbing Minneapolis Center
16:43 43.8753 -99.1881 95° East 475 547 35,000 484 Climbing Minneapolis Center
16:44 43.8586 -98.9667 96° East 480 552 35,000  Level Minneapolis Center
16:45 43.8431 -98.7739 96° East 495 570 35,000  Level Minneapolis Center
16:46 43.8303 -98.5967 96° East 507 583 35,000  Level Minneapolis Center
16:47 43.8156 -98.4039 96° East 506 582 35,000  Level Minneapolis Center
16:48 43.7969 -98.1744 96° East 503 579 35,000  Level Minneapolis Center
16:50 43.7717 -97.9836 100° East 506 582 35,000  Level Minneapolis Center
16:51 43.7458 -97.7914 100° East 510 587 35,000  Level Minneapolis Center
16:52 43.7197 -97.6033 101° East 502 578 35,000  Level Minneapolis Center
16:53 43.6953 -97.4161 100° East 498 573 35,000  Level Minneapolis Center
16:54 43.6642 -97.1897 101° East 501 577 35,000  Level Minneapolis Center
16:55 43.6394 -96.9997 100° East 505 581 35,000  Level Minneapolis Center
16:56 43.6128 -96.8086 101° East 510 587 35,000  Level Minneapolis Center
16:57 43.5858 -96.6164 101° East 514 592 35,000  Level Minneapolis Center
16:58 43.5597 -96.4267 101° East 511 588 35,000  Level Minneapolis Center
16:59 43.5319 -96.2403 102° East 504 580 35,000  Level Minneapolis Center
17:00 43.5003 -96.0169 101° East 500 575 35,000  Level Minneapolis Center
17:01 43.4722 -95.8319 102° East 499 574 35,000  Level Minneapolis Center
17:02 43.4458 -95.6472 101° East 496 571 35,000  Level Minneapolis Center
17:03 43.4200 -95.4661 101° East 490 564 35,000  Level Minneapolis Center
17:04 43.3961 -95.2892 100° East 476 548 35,000  Level Minneapolis Center
17:05 43.3664 -95.0719 101° East 483 556 35,000  Level Minneapolis Center
17:06 43.3356 -94.8519 101° East 490 564 35,000  Level Minneapolis Center
17:07 43.3114 -94.6681 100° East 490 564 35,000  Level Minneapolis Center
17:08 43.2861 -94.4861 101° East 487 560 35,000  Level Minneapolis Center
17:09 43.2603 -94.3047 101° East 485 558 35,000  Level Minneapolis Center
17:10 43.2347 -94.1211 101° East 484 557 35,000  Level Minneapolis Center
17:11 43.2111 -93.9428 100° East 480 552 35,000  Level Minneapolis Center
17:12 43.1808 -93.7289 101° East 481 554 35,000  Level Minneapolis Center
17:13 43.1575 -93.5531 100° East 476 548 35,000  Level Minneapolis Center
17:14 43.1361 -93.3764 99° East 476 548 35,000  Level Minneapolis Center
17:15 43.1136 -93.2019 100° East 472 543 35,000 -488 Level Minneapolis Center
17:17 43.0908 -93.0294 100° East 466 536 34,000 -1,016 Descending Minneapolis Center
17:18 43.0733 -92.8561 98° East 464 534 32,900 -1,210 Descending Minneapolis Center
17:19 43.0506 -92.6478 98° East 466 536 31,500 -927 Descending Minneapolis Center
17:20 43.0325 -92.4761 98° East 462 532 31,000 -244 Descending Minneapolis Center
17:21 43.0131 -92.3011 99° East 467 537 31,000  Level Minneapolis Center
17:22 42.9953 -92.1228 98° East 475 547 31,000  Level Minneapolis Center
17:23 42.9778 -91.9436 98° East 477 549 31,000  Level Minneapolis Center
17:24 42.9633 -91.7978 98° East 480 552 31,000 -145 Level Minneapolis Center
17:25 42.9425 -91.5775 97° East 483 556 30,700 -634 Descending Minneapolis Center
17:26 42.9244 -91.3947 98° East 481 554 29,700 -1,024 Descending Minneapolis Center
17:27 42.9017 -91.1767 98° East 483 556 28,600 -1,210 Descending Minneapolis Center
17:28 42.8775 -90.9969 100° East 485 558 27,200 -1,291 Descending Minneapolis Center
17:28 42.8736 -90.9642 99° East 479 551 26,900 -1,291 Descending Chicago Center
17:29 42.8450 -90.7931 103° East 469 540 25,500 -1,403 Descending Chicago Center
17:30 42.8094 -90.5850 103° East 472 543 24,000 -726 Descending Chicago Center
17:31 42.7783 -90.4147 104° East 468 539 24,000  Level Chicago Center
17:32 42.7472 -90.2472 104° East 463 533 24,000 -435 Level Chicago Center
17:33 42.7203 -90.0925 103° East 429 494 23,100 -1,548 Descending Chicago Center
17:34 42.6836 -89.9122 105° East 421 484 20,800 -1,839 Descending Chicago Center
17:35 42.6589 -89.7692 103° East 390 449 19,300 -1,452 Descending Chicago Center
17:36 42.6361 -89.6389 103° East 358 412 17,800 -1,488 Descending Chicago Center
17:37 42.6131 -89.4997 103° East 375 432 16,200 -1,536 Descending Chicago Center
17:38 42.5933 -89.3675 101° East 361 415 14,600 -1,306 Descending Chicago Center
17:40 42.5703 -89.2219 102° East 341 392 13,500 -968 Descending Chicago Center
17:41 42.5569 -89.0969 98° East 335 386 12,600 -968 Descending Chicago Center
17:42 42.5317 -88.9842 107° East 311 358 11,500 -968 Descending Chicago Center
17:43 42.4953 -88.8831 116° Southeast 301 346 10,600 -1,016 Descending Chicago Center
17:44 42.4639 -88.7761 112° Southeast 302 348 9,400 -774 Descending Chicago Center
17:45 42.4294 -88.6508 110° East 304 350 9,000 -194 Descending Chicago Center
17:46 42.4019 -88.5433 109° East 303 349 9,000 -145 Level Chicago Center
17:47 42.3764 -88.4344 108° East 303 349 8,700 -672 Descending Chicago Center
17:48 42.3464 -88.3314 111° Southeast 298 343 7,600 -816 Descending Chicago Center
17:49 42.2908 -88.2764 144° Southeast 262 302 7,000 -339 Descending Chicago Center
17:50 42.2331 -88.2075 139° Southeast 236 272 6,900 -677 Descending Chicago Center
17:51 42.1842 -88.1528 140° Southeast 232 267 5,600 -1,258 Descending Chicago Center
17:52 42.1375 -88.1003 140° Southeast 223 257 4,300 -1,333 Descending Chicago Center
17:52 42.1167 -88.0833 149° Southeast 220 253 3,800 -1,139 Descending Chicago TRACON
17:53 42.0833 -88.0333 132° Southeast 200 230 2,800 -947 Descending Chicago TRACON
17:54 42.0333 -87.9833 143° Southeast 169 194 2,000 -895 Descending Chicago TRACON
17:55 42.0167 -87.9500 124° Southeast 147 169 1,100 -900 Descending Chicago TRACON
17:57 41.9817 -87.9067 180° South  Level Estimated